Updated23/01/2019 01:50 
 

GeoURL
free counters
Scottish Weather Network UK Weather Network Cumulus Top Weather Sites

Peebles Weather - Tide Information

Raw Data, Raw Data Expanded

Ignore low humidity and Dew Point values. Something wrong with the sensor.
Daytime temperatures are in direct sunlight so may be higher than official air temperature values.
As with any other website, we log your IP address and browser type in the server logs for diagnostic reasons. Cookies are used to record visit time and gauges preferences. No personal information is stored or processed.

All times are in local time (GMT, or BST in summer) unless specified.

2019/01/23 01:20 EGPH 230120Z VRB01KT CAVOK M06/M07 Q0997
-1.7°C 0.0 mm 0.0 mm 2.4 mm 0.0 mph 0.0 mph 993.3 hPa 10% X-Ray Solar Flare Level
Planetary K-Index
Planetary K-Index History
Station Warn Rain Snow Flood Wind Ltng Heat Cold Glob Moon Temp Rain 1h Rain Wed Rain 24h Wind 10m Gust Pressure Hum Proton Levels
Ice
0.33 m Waning Gibbous Uncomfortably Cold F0-S F: A: Kp:0 SSN:0

Tides

 

XHTML 1.1 | CSS